Location: Fünfbronn
(49.1694°N, 10.8754°E)
Time: 16:33:15
(UTC+00:00)

Daily predictions for brighter satellites

Satellite Brightness Start Highest point End
(mag) Time Altitude Azimuth Time Altitude Azimuth Time Altitude Azimuth
USA 234 3.8 19:54:41 10° E 20:01:05 58° NNE 20:07:31 10° WNW
GENESIS II 4.4 20:00:17 10° NW 20:04:21 70° NE 20:08:23 10° SE
Meteor 2-10 Rocket 3.5 20:01:56 10° N 20:07:04 80° E 20:12:04 10° SSE
Okean 1 Rocket 3.5 20:03:11 10° NNW 20:07:39 65° W 20:12:04 10° S
Cosmos 407 Rocket 3.6 20:03:46 10° NNW 20:09:00 70° ENE 20:14:08 10° SSE
APEX 4.1 20:04:38 10° SSW 20:10:35 77° ESE 20:15:34 10° NNE
SL-14 R/B 3.6 20:07:19 10° SSW 20:11:10 70° W 20:15:05 10° N
S3M 4.0 20:05:31 10° S 20:11:44 77° E 20:17:54 10° NNE
Cosmos 1455 Rocket 3.3 20:08:33 10° N 20:12:52 53° ENE 20:17:05 10° SSE
USA 245 3.8 20:09:09 10° SSE 20:14:19 78° ENE 20:18:29 10° N
SL-16 R/B 4.3 20:09:32 10° WSW 20:14:40 33° NW 20:19:49 10° NNE
MetOp-B 4.4 20:11:40 10° S 20:17:00 75° WSW 20:22:24 10° NNW
SPOT 5 2.9 20:13:19 10° SSE 20:17:44 56° ENE 20:22:02 10° N
Cosmos 2056 Rocket 4.4 20:13:46 10° SSE 20:18:29 33° E 20:23:16 10° NE
Meteor 2-5 Rocket 4.1 20:13:27 10° SSE 20:18:42 47° E 20:23:59 10° NNE
SPOT 1/Viking Rocket 4.3 20:16:37 10° S 20:21:35 50° W 20:26:37 10° NNW
Cosmos 1271 Rocket 4.0 20:19:09 10° N 20:22:42 30° ENE 20:26:12 10° SE
Cosmos 1300 3.3 20:20:35 10° NNW 20:24:18 54° W 20:27:59 10° S
Cosmos 1025 Rocket 3.4 20:21:16 10° SSE 20:25:22 47° E 20:29:29 10° NNE
USA 32 4.5 20:24:52 10° SSE 20:29:50 46° E 20:34:50 10° NNE
ERS-1 Rocket 3.1 20:24:52 10° SSE 20:29:51 67° ENE 20:34:52 10° N
Cosmos 1140 Rocket 3.7 20:27:23 10° NNW 20:32:37 74° WSW 20:37:45 10° SSE
Cosmos 1953 4.2 20:31:35 10° NNW 20:34:58 28° W 20:38:22 10° SSW
Cosmos 1943 3.7 20:32:23 10° SW 20:38:00 65° WNW 20:43:40 10° NNE
CZ-2C R/B 4.0 20:36:31 10° NNE 20:41:03 50° E 20:45:28 10° S
Cosmos 1603 4.1 20:36:18 10° SW 20:41:58 69° WNW 20:47:43 10° NNE
Lacrosse 5 2.5 20:37:51 10° NW 20:42:55 56° NNE 20:47:56 10° ESE
Cosmos 1975 Rocket 3.1 20:41:35 10° S 20:46:03 89° WNW 20:50:32 10° N
H-2A R/B 4.3 20:42:58 10° N 20:46:41 28° WNW 20:50:25 10° WSW
Helios 1A Rocket 3.0 20:43:49 10° S 20:47:49 75° WSW 20:51:55 10° NNW
Ariane Rocket 4.4 20:44:41 10° SSW 20:49:17 34° W 20:53:56 10° NNW
Cosmos 1954 Rocket 4.1 20:44:25 10° NNW 20:49:45 70° ENE 20:54:15 14° SSE
Resurs 01 Rocket 4.0 20:50:44 10° SW 20:53:57 20° W 20:57:12 10° NW
Lacrosse 4 Rocket 3.3 20:54:26 10° WSW 20:58:11 33° NW 21:01:55 10° NNE
Tiangong 2.6 20:57:14 10° SW 20:59:37 19° S 21:00:12 19° SSE
Cosmos 2228 4.1 20:57:44 10° N 21:01:31 30° ENE 21:04:23 15° SE
Cosmos 1544 Rocket 3.5 20:59:43 10° N 21:04:04 89° W 21:07:38 15° S
Cosmos 1703 4.3 21:03:36 17° SE 21:05:46 29° E 21:09:10 10° NNE
FALCON 9 DEB 2.9 21:03:49 10° WSW 21:07:05 86° SSE 21:10:22 10° ENE
Terra 2.0 21:02:52 13° S 21:07:06 74° WSW 21:11:53 10° NNW
USA 267 3.2 21:02:18 10° ENE 21:08:52 71° SE 21:15:23 10° SW
SL-8 R/B 3.6 21:04:18 10° W 21:09:07 81° S 21:13:57 10° E
Cosmos 1980 Rocket 4.2 21:06:38 10° N 21:10:52 21° NE 21:15:04 10° E
Cosmos 1455 2.2 21:08:03 10° NNW 21:11:51 79° W 21:14:42 17° S
Meteor 1-24 Rocket 3.7 21:07:25 10° SSW 21:12:43 76° WNW 21:18:07 10° N
Cosmos 2315 Rocket 4.4 21:07:35 10° SSW 21:13:54 67° WNW 21:20:13 10° N
Cosmos 1697 Rocket 3.9 21:10:46 10° NNW 21:15:51 33° NE 21:20:54 10° ESE
NOSS 2-1 (C) 4.0 21:13:01 10° NW 21:17:22 81° NE 21:22:11 16° SE
Cosmos 1371 Rocket 4.1 21:13:34 10° SSW 21:18:47 81° WNW 21:24:06 10° NNE
RESURS DK-1 3.8 21:16:15 10° NNW 21:19:54 29° NE 21:23:13 12° ESE
Cosmos 1452 Rocket 4.2 21:17:03 18° SSE 21:20:23 35° ESE 21:25:08 10° NE
Spot 2 Rocket 4.5 21:15:38 10° SSW 21:20:24 41° W 21:25:15 10° NNW
ARIANE 5 R/B 3.0 21:23:37 16° S 21:27:06 61° WSW 21:31:32 10° NNW
NOSS 2-1 (D) 3.9 21:23:20 10° NW 21:27:45 88° SW 21:32:17 18° SE
ASTEX 1 4.1 21:24:24 10° NNE 21:29:07 40° E 21:32:06 20° SSE
Lacrosse 5 rocket 1.3 21:25:34 10° WNW 21:29:24 63° SW 21:31:47 23° SE
Cosmos 2084 3.2 21:27:03 10° SSW 21:30:48 56° SE 21:34:36 10° NE
Cosmos 2074 Rocket 4.0 21:30:54 10° N 21:37:13 84° W 21:42:02 18° S
ATLAS 2AS CENTAUR R/B 2.8 21:33:00 10° NW 21:40:06 69° SW 21:44:51 20° SSE
Cosmos 1656 3.6 21:37:45 10° NNW 21:43:14 87° ENE 21:46:54 22° SSE
GP-B 3.9 21:39:15 10° NNE 21:43:25 38° E 21:45:40 23° SE
USA 234 3.3 21:38:51 17° SE 21:44:03 69° SW 21:50:37 10° WNW
Cosmos 1833 Rocket 3.4 21:44:37 22° SSE 21:47:26 34° ESE 21:52:28 10° NE
Cosmos 2154 Rocket 4.0 21:50:18 10° N 21:56:35 84° W 22:00:52 21° S
Cosmos 1271 Rocket 4.5 21:55:09 10° NW 21:58:30 26° W 22:01:16 13° SW
Nadezhda 1 Rocket 3.9 21:54:38 19° S 21:59:08 81° E 22:05:14 10° N
Cosmos 2082 Rocket 3.7 21:59:42 17° SE 22:01:41 20° E 22:05:43 10° NE
Cosmos 1741 Rocket 4.0 21:58:33 10° NNW 22:03:54 83° WSW 22:07:02 25° SSE
Cosmos 2344 4.3 22:00:20 10° NW 22:09:00 79° NE 22:20:43 11° SE
Cosmos 968 Rocket 4.0 22:20:07 10° NNW 22:25:12 53° ENE 22:28:30 21° SE
Cosmos 1606 Rocket 3.8 22:21:06 10° NNW 22:25:22 59° W 22:27:26 28° SSW
H-2A R/B 3.8 22:21:33 10° NNE 22:25:40 51° E 22:27:16 32° SSE
Lacrosse 5 2.3 22:21:00 10° WNW 22:25:51 44° SW 22:27:56 29° S
COSMOS 2406 3.8 22:25:00 26° SSE 22:27:42 43° ESE 22:33:07 10° NE
Meteor 1-11 4.3 22:30:33 27° S 22:33:40 67° E 22:39:13 10° NNE
SL-8 Rocket 4.0 22:29:29 10° N 22:35:48 79° E 22:39:30 26° SSE
Cosmos 2369 3.9 22:31:45 10° NNW 22:37:30 70° ENE 22:41:14 22° SE
SJ 16-02 4.0 22:36:26 10° NNE 22:38:38 13° NE 22:40:50 10° ENE
Cosmos 2228 4.5 22:35:19 10° NNW 22:38:57 28° W 22:41:10 18° SW
Cosmos 1328 4.2 22:37:11 26° SSW 22:39:14 58° WNW 22:43:13 10° N
Cosmos 2218 Rocket 4.1 22:32:59 10° N 22:39:24 72° ENE 22:43:17 25° SSE
Cosmos 2341 Rocket 4.0 22:34:56 10° N 22:41:20 82° W 22:45:04 26° S
SL-16 R/B 4.1 22:37:52 10° NNW 22:42:36 26° NE 22:47:16 10° E
FALCON 9 DEB 4.4 22:40:27 10° WNW 22:43:34 41° N 22:46:43 10° ENE
Cosmos 1408 2.3 22:43:33 46° S 22:44:30 83° E 22:47:58 10° N
Cosmos 1825 2.8 22:46:54 33° SE 22:47:54 41° E 22:51:26 10° NNE
ALOS 2 2.6 22:46:37 34° S 22:48:30 74° WSW 22:52:54 10° NNW
Cosmos 2366 rocket 4.0 22:42:42 10° N 22:49:03 83° E 22:52:47 27° SSE
Cosmos 1900 4.4 22:45:37 10° NW 22:50:49 84° SW 22:53:35 28° SSE
Cosmos 1867 4.2 22:45:47 10° NNW 22:51:10 53° NE 22:56:07 12° ESE
SL-8 R/B 3.6 22:46:48 10° W 22:51:37 71° SSW 22:56:26 10° ESE
Cosmos 1726 Rocket 4.3 22:47:40 10° NNW 22:51:44 41° W 22:53:36 26° SW
USA 267 3.9 22:45:26 10° ENE 22:51:48 57° NNW 22:58:11 10° W
Cosmos 1980 Rocket 2.2 22:50:03 10° NNW 22:55:48 82° ENE 22:59:14 25° SSE
RESURS DK-1 3.2 22:54:09 10° NW 22:57:56 36° WSW 22:59:03 30° SW
Cosmos 1697 Rocket 3.0 22:54:37 10° NW 23:00:04 51° WSW 23:02:42 29° S
Cosmos 1331 Rocket 4.4 22:57:21 19° SW 23:01:09 63° WNW 23:06:26 10° NNE
Cosmos 1812 Rocket 4.3 22:57:21 10° N 23:01:41 45° ENE 23:03:53 25° SE
Lacrosse 5 rocket 3.6 23:06:34 10° WSW 23:07:17 11° WSW 23:07:17 11° WSW
Cosmos 1892 2.8 23:06:34 36° SW 23:07:53 63° WNW 23:11:38 10° N
ERS-2 2.0 23:04:51 10° NNE 23:08:27 76° ESE 23:09:26 45° S
ADEOS Rocket 3.5 23:05:35 26° S 23:09:48 67° W 23:17:20 10° NNW
USA 276 1.7 23:10:14 71° SW 23:10:29 81° SSE 23:13:24 10° ENE
Cosmos 2084 Rocket 3.3 23:07:10 10° NW 23:11:03 76° NE 23:13:11 26° SE
In-Cosmos 22 Rocket 4.2 23:08:21 29° S 23:11:24 89° ESE 23:16:59 10° NNE
Cosmos 2058 Rocket 3.9 23:10:51 10° NNW 23:14:58 40° W 23:16:43 28° SW
Cosmos 1602 Rocket 3.8 23:15:24 34° SSE 23:17:01 55° E 23:21:16 10° NNE
Cosmos 2181 Rocket 4.1 23:15:18 25° SSW 23:18:59 73° W 23:25:11 10° N
Cosmos 2278 3.7 23:18:02 10° NNW 23:23:49 82° ENE 23:27:31 23° SSE
Cosmos 1302 Rocket 4.0 23:21:10 26° SSW 23:24:07 77° WNW 23:29:22 10° NNE
Cosmos 2322 Rocket 3.6 23:19:41 10° NNW 23:24:51 35° NE 23:30:00 10° ESE
Geosat FO 4.4 23:25:31 48° S 23:26:21 73° WSW 23:29:54 10° NNW
USA 234 4.5 23:26:11 20° SW 23:27:52 22° SW 23:32:45 10° WNW
ATLAS 2AS CENTAUR R/B 4.4 23:26:02 10° WNW 23:29:39 15° WSW 23:32:16 12° SW
Cosmos 1833 Rocket 3.6 23:26:16 12° SW 23:31:14 46° NW 23:36:39 10° NNE
CZ-2D R/B 4.3 23:32:32 10° NE 23:35:22 14° E 23:38:10 10° ESE
Geosat 4.0 23:35:56 23° SE 23:39:11 84° ENE 23:44:15 10° NNW
BREEZE-M DEB (TANK) 4.2 23:37:11 10° W 23:41:03 81° SSW 23:58:31 10° ESE
Okean 1-7 Rocket 4.2 23:39:49 27° SW 23:41:53 49° WNW 23:46:14 10° N
Cosmos 1626 Rocket 3.9 23:42:03 30° SW 23:43:57 53° WNW 23:48:13 10° N
Cosmos 2082 Rocket 2.3 23:41:31 24° SW 23:45:08 76° WNW 23:50:53 10° NNE
Cosmos 1821 Rocket 4.0 23:41:01 10° NNW 23:47:20 76° W 23:50:56 27° S
Cosmos 1869 4.3 23:46:22 10° NNW 23:49:49 32° W 23:50:55 27° WSW
ATLAS 5 CENTAUR R/B 2.1 23:51:03 29° SE 23:51:45 31° ESE 23:55:24 10° ENE
Cosmos 1238 4.1 23:52:31 55° S 23:53:04 78° E 23:56:07 10° NNE
